Location: Newark
(51.8900°N, 2.0780°W)
Time: 20:59:20
(UTC+00:00)

Envisat - Pass Details

Date: 23 November 2019
Orbit: 764 x 766 km, 98.1° (Epoch: 13 December)

Event Time Altitude Azimuth Distance (km) Brightness Sun altitude
Rises 06:48:18 0° 17° (NNE) 3,245 6.2 -8.0°
Reaches altitude 10° 06:50:40 10° 22° (NNE) 2,314 5.5 -7.6°
Maximum altitude 06:55:41 55° 100° (E) 915 3.9 -6.9°
Drops below altitude 10° 07:00:39 10° 179° (S) 2,297 5.9 -6.2°
Sets 07:03:00 0° 183° (S) 3,218 6.5 -5.9°
